User: anonymous   Login
Location: Unspecified
(42.1900°N, 71.3291°W)
Time: 00:50:16
(UTC-05:00)
Language:

Resurs 1-4 Rocket - Orbit

View from above orbital plane
View from above orbital plane
View from above satellite
View from above satellite

Ground track
Ground track

The orbit data is extracted from the following two-line orbital elements,

1 25400U 98043G   18049.45749423 -.00000013 +00000-0 +12519-4 0  9992
2 25400 098.5210 355.2003 0008868 299.4548 060.5747 14.25429141020157
Epoch (UTC): 18 February 2018 10:58:47
Eccentricity: 0.0008868
inclination: 98.5210°
perigee height: 800 km
apogee height: 813 km
right ascension of ascending node: 355.2003°
argument of perigee: 299.4548°
revolutions per day: 14.25429141
mean anomaly at epoch: 60.5747°
orbit number at epoch: 2015

The dashed part of the orbit path shows where the satellite is in the earth's shadow,  

DLR